• en France
  • Liste des pays
  • À 7 jours
  • Température de l'eau
  • Carte satellitaire
  • Carte météo
  • Widgets météo
  • user-avatar
    Se connecter

    Météo par heure à Santa Fe

    Ce jour, 24 Septembre, Lundi

    Heure Température Précipitation Vent Pression Humidité
    00:00 +20°C° 0 mm 7 m/s 757 mmHg 53%
    01:00 +18°C° 0 mm 7 m/s 758 mmHg 49%
    02:00 +18°C° 0 mm 7 m/s 758 mmHg 47%
    03:00 +17°C° 0 mm 7 m/s 758 mmHg 49%
    04:00 +17°C° 0 mm 7 m/s 758 mmHg 50%
    05:00 +16°C° 0 mm 7 m/s 759 mmHg 52%
    06:00 +17°C° 0 mm 6 m/s 759 mmHg 51%
    07:00 +17°C° 0 mm 6 m/s 760 mmHg 49%
    08:00 +19°C° 0 mm 6 m/s 761 mmHg 47%
    09:00 +20°C° 0 mm 6 m/s 761 mmHg 43%
    10:00 +22°C° 0 mm 6 m/s 761 mmHg 40%
    11:00 +24°C° 0 mm 6 m/s 761 mmHg 36%
    12:00 +24°C° 0 mm 7 m/s 760 mmHg 35%
    13:00 +26°C° 0 mm 7 m/s 760 mmHg 35%
    14:00 +27°C° 0 mm 7 m/s 759 mmHg 34%
    15:00 +26°C° 0 mm 6 m/s 759 mmHg 39%
    16:00 +25°C° 0 mm 5 m/s 758 mmHg 43%
    17:00 +23°C° 0 mm 4 m/s 758 mmHg 48%
    18:00 +22°C° 0 mm 4 m/s 758 mmHg 52%
    19:00 +20°C° 0 mm 4 m/s 759 mmHg 57%
    20:00 +19°C° 0 mm 4 m/s 759 mmHg 61%
    21:00 +19°C° 0 mm 4 m/s 759 mmHg 62%
    22:00 +18°C° 0 mm 4 m/s 759 mmHg 64%
    23:00 +17°C° 0 mm 5 m/s 759 mmHg 65%

    Demain, 25 Septembre, Mardi

    Heure Température Précipitation Vent Pression Humidité
    00:00 +17°C° 0 mm 5 m/s 759 mmHg 66%
    01:00 +16°C° 0 mm 5 m/s 759 mmHg 68%
    02:00 +16°C° 0 mm 5 m/s 758 mmHg 69%
    03:00 +17°C° 0 mm 4 m/s 758 mmHg 70%
    04:00 +15°C° 0 mm 4 m/s 758 mmHg 71%
    05:00 +15°C° 0 mm 4 m/s 758 mmHg 72%
    06:00 +15°C° 0 mm 4 m/s 758 mmHg 72%
    07:00 +16°C° 0 mm 5 m/s 758 mmHg 72%
    08:00 +16°C° 0 mm 5 m/s 759 mmHg 72%
    09:00 +19°C° 0 mm 5 m/s 758 mmHg 71%
    10:00 +20°C° 0 mm 5 m/s 758 mmHg 69%
    11:00 +22°C° 0 mm 4 m/s 758 mmHg 67%
    12:00 +21°C° 0 mm 4 m/s 757 mmHg 69%
    13:00 +21°C° 0 mm 4 m/s 757 mmHg 70%
    14:00 +21°C° 0 mm 4 m/s 756 mmHg 72%
    15:00 +21°C° 0 mm 4 m/s 756 mmHg 74%
    16:00 +20°C° 0 mm 4 m/s 756 mmHg 76%
    17:00 +20°C° 0 mm 4 m/s 755 mmHg 78%
    18:00 +19°C° 0 mm 4 m/s 756 mmHg 79%
    19:00 +19°C° 0 mm 4 m/s 756 mmHg 81%
    20:00 +18°C° 0 mm 4 m/s 756 mmHg 83%
    21:00 +17°C° 0 mm 4 m/s 756 mmHg 86%
    22:00 +17°C° 0 mm 3 m/s 757 mmHg 89%
    23:00 +16°C° 0 mm 3 m/s 757 mmHg 92%

    Après-demain, 26 Septembre, Mercredi

    Heure Température Précipitation Vent Pression Humidité
    00:00 +16°C° 0 mm 2 m/s 757 mmHg 92%
    01:00 +15°C° 0 mm 2 m/s 756 mmHg 93%
    02:00 +15°C° 0 mm 2 m/s 756 mmHg 94%
    03:00 +16°C° 0 mm 3 m/s 756 mmHg 92%
    04:00 +16°C° 0 mm 3 m/s 756 mmHg 90%
    05:00 +16°C° 0 mm 3 m/s 756 mmHg 89%
    06:00 +16°C° 0 mm 3 m/s 757 mmHg 88%
    07:00 +17°C° 0 mm 3 m/s 757 mmHg 87%
    08:00 +17°C° 0 mm 3 m/s 757 mmHg 85%
    09:00 +19°C° 0 mm 3 m/s 757 mmHg 80%
    10:00 +20°C° 0 mm 3 m/s 758 mmHg 75%
    11:00 +22°C° 0 mm 3 m/s 758 mmHg 69%
    12:00 +24°C° 0 mm 3 m/s 757 mmHg 69%
    13:00 +23°C° 0 mm 4 m/s 757 mmHg 70%
    14:00 +25°C° 0 mm 4 m/s 756 mmHg 70%
    15:00 +23°C° 0 mm 4 m/s 756 mmHg 74%
    16:00 +22°C° 0 mm 4 m/s 756 mmHg 78%
    17:00 +21°C° 0 mm 4 m/s 756 mmHg 82%
    18:00 +20°C° 0 mm 4 m/s 756 mmHg 84%
    19:00 +20°C° 0 mm 4 m/s 757 mmHg 86%
    20:00 +19°C° 0 mm 4 m/s 757 mmHg 89%
    21:00 +19°C° 0 mm 4 m/s 757 mmHg 89%
    22:00 +19°C° 0 mm 4 m/s 758 mmHg 90%
    23:00 +19°C° 0 mm 4 m/s 758 mmHg 91%

    27 Septembre, Jeudi

    Heure Température Précipitation Vent Pression Humidité
    00:00 +19°C° 0.1 mm 4 m/s 758 mmHg 91%
    01:00 +19°C° 0.1 mm 3 m/s 758 mmHg 91%
    02:00 +19°C° 0.1 mm 3 m/s 758 mmHg 91%
    03:00 +18°C° 0.1 mm 3 m/s 758 mmHg 92%
    04:00 +18°C° 0.1 mm 3 m/s 758 mmHg 92%
    05:00 +18°C° 0.1 mm 3 m/s 758 mmHg 92%
    06:00 +19°C° 0 mm 4 m/s 758 mmHg 91%
    07:00 +19°C° 0 mm 4 m/s 758 mmHg 89%
    08:00 +19°C° 0 mm 4 m/s 759 mmHg 88%
    09:00 +20°C° 0 mm 4 m/s 759 mmHg 83%
    10:00 +21°C° 0 mm 4 m/s 759 mmHg 79%
    11:00 +22°C° 0 mm 4 m/s 759 mmHg 74%
    12:00 +22°C° 0 mm 4 m/s 759 mmHg 74%
    13:00 +22°C° 0 mm 4 m/s 759 mmHg 74%
    14:00 +23°C° 0 mm 5 m/s 758 mmHg 74%
    15:00 +22°C° 0 mm 4 m/s 758 mmHg 74%
    16:00 +22°C° 0 mm 4 m/s 758 mmHg 75%
    17:00 +22°C° 0 mm 4 m/s 758 mmHg 75%
    18:00 +21°C° 0 mm 4 m/s 758 mmHg 79%
    19:00 +20°C° 0 mm 3 m/s 759 mmHg 84%
    20:00 +19°C° 0 mm 3 m/s 759 mmHg 88%
    21:00 +18°C° 0 mm 3 m/s 759 mmHg 90%
    22:00 +18°C° 0 mm 3 m/s 760 mmHg 91%
    23:00 +18°C° 0 mm 3 m/s 760 mmHg 93%

    28 Septembre, Vendredi

    Heure Température Précipitation Vent Pression Humidité
    00:00 +17°C° 0 mm 3 m/s 760 mmHg 94%
    01:00 +17°C° 0 mm 3 m/s 759 mmHg 95%
    02:00 +17°C° 0 mm 3 m/s 759 mmHg 96%
    03:00 +16°C° 0 mm 3 m/s 759 mmHg 96%
    04:00 +16°C° 0 mm 3 m/s 759 mmHg 96%
    05:00 +16°C° 0 mm 3 m/s 759 mmHg 96%
    06:00 +17°C° 0 mm 3 m/s 759 mmHg 92%
    07:00 +18°C° 0 mm 3 m/s 760 mmHg 89%
    08:00 +19°C° 0 mm 3 m/s 760 mmHg 85%
    09:00 +21°C° 0 mm 3 m/s 760 mmHg 78%
    10:00 +24°C° 0 mm 3 m/s 759 mmHg 72%
    11:00 +26°C° 0 mm 3 m/s 759 mmHg 65%
    12:00 +26°C° 0 mm 3 m/s 758 mmHg 66%
    13:00 +27°C° 0 mm 4 m/s 758 mmHg 66%
    14:00 +27°C° 0 mm 4 m/s 757 mmHg 67%
    15:00 +26°C° 0 mm 4 m/s 757 mmHg 69%
    16:00 +26°C° 0 mm 5 m/s 756 mmHg 72%
    17:00 +25°C° 0 mm 5 m/s 756 mmHg 74%
    18:00 +23°C° 0 mm 4 m/s 756 mmHg 80%
    19:00 +22°C° 0 mm 4 m/s 756 mmHg 85%
    20:00 +20°C° 0 mm 4 m/s 756 mmHg 90%
    21:00 +20°C° 0 mm 4 m/s 756 mmHg 91%
    22:00 +20°C° 0 mm 4 m/s 755 mmHg 92%
    23:00 +20°C° 0 mm 4 m/s 755 mmHg 94%

    29 Septembre, Samedi

    Heure Température Précipitation Vent Pression Humidité
    00:00 +20°C° 0 mm 4 m/s 755 mmHg 94%
    01:00 +20°C° 0 mm 3 m/s 754 mmHg 94%
    02:00 +20°C° 0 mm 3 m/s 754 mmHg 94%
    03:00 +21°C° 0.1 mm 3 m/s 754 mmHg 95%
    04:00 +21°C° 0.1 mm 3 m/s 753 mmHg 95%
    05:00 +22°C° 0.1 mm 3 m/s 753 mmHg 95%
    06:00 +22°C° 0 mm 3 m/s 753 mmHg 94%
    07:00 +22°C° 0 mm 4 m/s 754 mmHg 93%
    08:00 +23°C° 0 mm 4 m/s 754 mmHg 92%
    09:00 +25°C° 0 mm 4 m/s 754 mmHg 89%
    10:00 +25°C° 0 mm 4 m/s 753 mmHg 86%
    11:00 +26°C° 0 mm 5 m/s 753 mmHg 83%
    12:00 +28°C° 0 mm 4 m/s 752 mmHg 76%
    13:00 +30°C° 0 mm 4 m/s 751 mmHg 69%
    14:00 +33°C° 0 mm 4 m/s 751 mmHg 62%
    15:00 +33°C° 0.2 mm 3 m/s 750 mmHg 63%
    16:00 +32°C° 0.2 mm 2 m/s 750 mmHg 64%
    17:00 +32°C° 0.2 mm 1 m/s 750 mmHg 65%
    18:00 +30°C° 0.1 mm 2 m/s 750 mmHg 71%
    19:00 +29°C° 0.1 mm 2 m/s 751 mmHg 76%
    20:00 +27°C° 0.1 mm 3 m/s 751 mmHg 82%
    21:00 +27°C° 0 mm 3 m/s 751 mmHg 84%
    22:00 +26°C° 0 mm 2 m/s 751 mmHg 87%
    23:00 +26°C° 0 mm 2 m/s 752 mmHg 89%
    Voir plus